OBJECT G, 61900

Orbit data source: Space-Track

You're viewing an Uncataloged Satellite

Recently launched and/or uncataloged satellites may have evolving metadata. Metadata may include but not limited to: Owner, Maufacturer, Bus, Motor, and Mission.

OBJECT G, 61900 is a Chinese satellite in SSO that was launched on Mon, 11 Nov 2024 UTC via a LIJIAN-1 launch vehicle from the Jiuquan Satellite Launch Center, China (JSC). Unknown objects in Earth's orbit typically refer to objects detected orbiting the Earth but have not yet been identified or cataloged. These objects could be anything from previously untracked satellites, spent rocket stages, debris from satellite collisions, or even natural meteoroids temporarily captured by Earth's gravity.

Loading next visibility...
Identifier
61900, 2024-205G
Orbit
SSO
Country
Flag of CNCN / PRC
Related business
None
Manufacturer
Unknown
Mission
Operational Commercial Meteo Radio Occ.
Bus & Motor
Unknown
Mass
Unknown
Launch date (UTC)
2024-11-11 (1 year ago)
Launch vehicle
LIJIAN-1
Launch site
Jiuquan Satellite Launch Center, China (JSC)
Object type
Unknown
Shape & HBR
Box + 1 Pan, 2.5 m
Radar Cross Section
5.339 m², Medium (>0.1 m² and < 1m²)

Expand to show TLE details & history
Last TLE update: 18 hours ago

TLE from 18 hours ago
0 OBJECT G
1 61900U 24205G   25309.32097596  .00014123  00000-0  69508-3 0  9991
2 61900  97.4404  20.2958 0026743  96.0709 264.3573 15.17781571 54322
Epoch: 2025-11-05T07:42Z
TLE epoch observation values (Epoch: 2025-11-05T07:42:12.322Z)
Latitude
-0.00008°
Longitude
-140.05086°
Altitude
517.494 km
Speed
7.604 km/s
True Right ascension
01h 21m 10s
True Declination
0° 00' 00"
Sunlit
Object was in full shadow at epoch
Visualization orbit readout
Latitude
Unknown
Longitude
Unknown
Altitude
Unknown
Speed
Unknown
Apparent Right ascension
Unknown
Apparent Declination
Unknown
Sunlit
N/A
Visualization observer readout
Local Sidereal Time
21:50:31
Azimuth
Unknown
Elevation
Unknown
Doppler factor
Unknown
Orbital elements
Apogee altitude
527.937 km
Perigee altitude
491.097 km
Semi-major axis
6,887.654 km
Eccentricity
0.00267
Inclination
97.4404°
RAAN
20.2958°
Arg. of periapsis
96.0709°
True anomaly
264.05243°
Mean anomaly
264.3573°
Eccentric anomaly
264.20486°
Mean motion
3.79696 °/min
Orbital period
94.81 mins
BSTAR
0.00069508
Loading maneuver chart data...
Computing Atmospheric mass density...
Loading historical data...
Loading historical data...
Loading historical data...
Loading historical data...
Loading historical data...
Loading historical data...
Loading historical data...

Documentation

Showing up to 5 results
|